Regional Weather Roundup
Issued by NWS

Home | Current Version | Previous Version | Graphics & Text | Print | Product List | Glossary On
Versions: 1 2 3 4 5 6 7 8 9 10 11 12 13 14 15 16 17 18 19 20 21 22 23 24 25 26 27 28
000
ASUS45 KCYS 192110
RWRWY

WYOMING REGIONAL WEATHER ROUNDUP
NATIONAL WEATHER SERVICE CHEYENNE WY
200 PM MST THU JAN 19 2017

NOTE:  "FAIR" INDICATES FEW OR NO CLOUDS BELOW 12,000 FEET
WITH NO SIGNIFICANT WEATHER AND/OR OBSTRUCTIONS TO VISIBILITY.

WYZ001-192200-
YELLOWSTONE NATIONAL PARK

CITY           SKY/WX    TMP DP  RH WIND       PRES   REMARKS
LK YELLOWSTONE   N/A     27  22  81 CALM      29.62F
W YELLOWSTONE  NOT AVBL

$$
WYZ002>013-054>058-071-098>099-192200-
NORTHERN WYOMING

CITY           SKY/WX    TMP DP  RH WIND       PRES   REMARKS
JACKSON        CLOUDY    21  21 100 SE7       29.64F WCI  13
CODY           CLOUDY    26  19  74 CALM      29.51S
GREYBULL       FAIR      23  13  65 E6        29.54F WCI  16
WORLAND        FAIR      29  20  69 CALM      29.52F
SHERIDAN       FAIR      42  23  46 CALM      29.45F
BUFFALO        FAIR      48  17  29 CALM      29.47S
GILLETTE       FAIR      46  24  42 W17       29.45F
HULETT         FAIR      45  23  42 SW8       29.47S
NEWCASTLE      FAIR      41  27  56 CALM      29.50F

$$
WYZ014>020-022>026-101>103-192200-
CENTRAL WYOMING

CITY           SKY/WX    TMP DP  RH WIND       PRES   REMARKS
BIG PINEY      LGT SNOW  14  10  84 CALM      29.68F FOG
PINEDALE       CLOUDY    18  14  86 CALM      29.67F
DUBOIS         NOT AVBL
LANDER         CLOUDY    23  12  62 NE3       29.56F
RIVERTON       PTSUNNY   18  12  77 CALM      29.58F
CASPER         FAIR      40  24  53 SW32G40   29.57F WCI  28
DOUGLAS        FAIR      50  21  32 W25       29.51F

$$
WYZ021-027>030-104>119-192200-
SOUTHERN WYOMING

CITY           SKY/WX    TMP DP  RH WIND       PRES   REMARKS
EVANSTON       LGT SNOW  28  25  88 SW14      29.67F FOG     WCI  17
ROCK SPRINGS   LGT SNOW  15  11  83 CALM      29.68F VSB 3/4
RAWLINS        FAIR      32  22  66 SW29G39   29.66F WCI  18
LARAMIE        FAIR      27  19  72 N10       29.59F WCI  17
CHEYENNE       FAIR      55  11  17 W9        29.52F
TORRINGTON     FAIR      57  15  19 W13       29.48F

$$




USA.gov is the U.S. government's official web portal to all federal, state and local government web resources and services.